EAG5520 SEMT-SKCL

Flight info

Callsign EAG5520
Flight time 0h 59m
Altitude 23000
Route ATOVI1C ATOVI W7 ESV/N0446F240 R564 TCO/N0439F230 R564 DAKOP DAKOP3B
Aircraft B38M/M-SDE1FGHILORVWXY/HB1

Departure

Time 2026-04-29 01:45
Airport Eloy Alfaro International Airport (SEMT)

Arrival

Time 2026-04-29 02:45
Airport Alfonso Bonilla Aragon International Airport (SKCL)
Time Latitude Longitude Altitude Speed Heading
2026-04-29 01:25 -0.95281 -80.68489 51 ft 0 kts 147°
2026-04-29 01:27 -0.95279 -80.68490 51 ft 1 kts 147°
2026-04-29 01:27 -0.95266 -80.68496 50 ft 3 kts 169°
2026-04-29 01:27 -0.95253 -80.68500 51 ft 1 kts 157°
2026-04-29 01:28 -0.95250 -80.68501 46 ft 0 kts 157°
2026-04-29 01:35 -0.95253 -80.68500 51 ft 2 kts 156°
2026-04-29 01:37 -0.95258 -80.68494 51 ft 1 kts 109°
2026-04-29 01:37 -0.95255 -80.68490 51 ft 2 kts 55°
2026-04-29 01:37 -0.95231 -80.68455 47 ft 11 kts 53°
2026-04-29 01:37 -0.95144 -80.68401 51 ft 19 kts 31°
2026-04-29 01:38 -0.95079 -80.68319 52 ft 17 kts 52°
2026-04-29 01:38 -0.95010 -80.68217 53 ft 18 kts 54°
2026-04-29 01:38 -0.95002 -80.68206 53 ft 18 kts 57°
2026-04-29 01:38 -0.94939 -80.68112 53 ft 20 kts 56°
2026-04-29 01:39 -0.94874 -80.68019 53 ft 19 kts 55°
2026-04-29 01:39 -0.94867 -80.68009 53 ft 19 kts 55°
2026-04-29 01:39 -0.94787 -80.67895 49 ft 21 kts 55°
2026-04-29 01:40 -0.94703 -80.67770 54 ft 22 kts 56°
2026-04-29 01:40 -0.94613 -80.67638 54 ft 24 kts 55°
2026-04-29 01:40 -0.94517 -80.67498 53 ft 25 kts 55°
2026-04-29 01:40 -0.94418 -80.67348 54 ft 26 kts 53°
2026-04-29 01:41 -0.94316 -80.67205 57 ft 25 kts 55°
2026-04-29 01:41 -0.94214 -80.67055 56 ft 27 kts 54°
2026-04-29 01:41 -0.94107 -80.66899 58 ft 28 kts 56°
2026-04-29 01:41 -0.94080 -80.66860 57 ft 0 kts 52°
2026-04-29 01:42 -0.94074 -80.66853 57 ft 3 kts 52°
2026-04-29 01:43 -0.94010 -80.66815 56 ft 16 kts 12°
2026-04-29 01:43 -0.93909 -80.66771 54 ft 17 kts 43°
2026-04-29 01:43 -0.93848 -80.66764 55 ft 4 kts 300°
2026-04-29 01:43 -0.93848 -80.66777 54 ft 2 kts 252°
2026-04-29 01:44 -0.93864 -80.66805 57 ft 11 kts 237°
2026-04-29 01:44 -0.93888 -80.66838 58 ft 0 kts 236°
2026-04-29 01:44 -0.93921 -80.66886 55 ft 34 kts 236°
2026-04-29 01:44 -0.94180 -80.67264 54 ft 96 kts 235°
2026-04-29 01:45 -0.94659 -80.67959 52 ft 145 kts 235°
2026-04-29 01:45 -0.95309 -80.68876 196 ft 171 kts 234°
2026-04-29 01:45 -0.95960 -80.69895 756 ft 168 kts 236°
2026-04-29 01:45 -0.96622 -80.70818 1395 ft 169 kts 234°
2026-04-29 01:46 -0.97305 -80.71840 1805 ft 186 kts 246°
2026-04-29 01:46 -0.97385 -80.73174 2182 ft 208 kts 291°
2026-04-29 01:46 -0.96435 -80.74301 2599 ft 226 kts 332°
2026-04-29 01:46 -0.94876 -80.74578 3056 ft 240 kts 13°
2026-04-29 01:47 -0.93464 -80.73775 3936 ft 239 kts 45°
2026-04-29 01:47 -0.92297 -80.72547 4636 ft 248 kts 44°
2026-04-29 01:47 -0.91032 -80.71365 5446 ft 251 kts 42°
2026-04-29 01:47 -0.89695 -80.70202 6175 ft 257 kts 40°
2026-04-29 01:48 -0.88284 -80.69036 6753 ft 271 kts 39°
2026-04-29 01:48 -0.86763 -80.67829 7216 ft 286 kts 38°
2026-04-29 01:48 -0.85197 -80.66603 8004 ft 287 kts 38°
2026-04-29 01:48 -0.83608 -80.65367 8750 ft 291 kts 38°
2026-04-29 01:49 -0.81999 -80.64120 9506 ft 294 kts 38°
2026-04-29 01:49 -0.80367 -80.62857 10184 ft 301 kts 38°
2026-04-29 01:49 -0.78652 -80.61541 10514 ft 320 kts 38°
2026-04-29 01:49 -0.76832 -80.60147 10766 ft 340 kts 38°
2026-04-29 01:50 -0.74918 -80.58678 11089 ft 354 kts 38°
2026-04-29 01:50 -0.72947 -80.57158 11666 ft 359 kts 38°
2026-04-29 01:50 -0.70970 -80.55624 12360 ft 361 kts 38°
2026-04-29 01:50 -0.68978 -80.54074 13071 ft 364 kts 38°
2026-04-29 01:51 -0.67651 -80.53041 13536 ft 367 kts 38°
2026-04-29 01:51 -0.64967 -80.50951 14391 ft 371 kts 38°
2026-04-29 01:51 -0.62777 -80.49556 15034 ft 375 kts 28°
2026-04-29 01:51 -0.60472 -80.48316 15644 ft 378 kts 29°
2026-04-29 01:52 -0.58906 -80.47469 16056 ft 380 kts 29°
2026-04-29 01:52 -0.56603 -80.46221 16641 ft 383 kts 29°
2026-04-29 01:52 -0.54217 -80.44928 17227 ft 387 kts 29°
2026-04-29 01:52 -0.51878 -80.43660 17792 ft 390 kts 29°
2026-04-29 01:53 -0.49483 -80.42362 18315 ft 393 kts 29°
2026-04-29 01:53 -0.47075 -80.41056 18778 ft 396 kts 29°
2026-04-29 01:53 -0.44644 -80.39739 19216 ft 399 kts 29°
2026-04-29 01:53 -0.42191 -80.38409 19654 ft 402 kts 29°
2026-04-29 01:54 -0.39717 -80.37069 20092 ft 405 kts 29°
2026-04-29 01:54 -0.37225 -80.35718 20512 ft 409 kts 29°
2026-04-29 01:54 -0.34714 -80.34357 20930 ft 412 kts 29°
2026-04-29 01:54 -0.32184 -80.32986 21340 ft 415 kts 29°
2026-04-29 01:55 -0.29631 -80.31602 21744 ft 418 kts 29°
2026-04-29 01:55 -0.27067 -80.30213 22134 ft 421 kts 30°
2026-04-29 01:55 -0.24477 -80.28809 22525 ft 424 kts 30°
2026-04-29 01:55 -0.21867 -80.27395 22859 ft 429 kts 30°
2026-04-29 01:56 -0.19229 -80.25965 22948 ft 436 kts 30°
2026-04-29 01:56 -0.16536 -80.24505 22938 ft 444 kts 30°
2026-04-29 01:56 -0.13790 -80.23017 22939 ft 452 kts 30°
2026-04-29 01:56 -0.11044 -80.21529 22937 ft 458 kts 30°
2026-04-29 01:57 -0.08226 -80.20002 22933 ft 464 kts 30°
2026-04-29 01:57 -0.05372 -80.18455 22939 ft 469 kts 30°
2026-04-29 01:57 -0.02496 -80.16897 22937 ft 473 kts 30°
2026-04-29 01:57 0.00413 -80.15320 22930 ft 477 kts 30°
2026-04-29 01:58 0.03332 -80.13739 22933 ft 477 kts 29°
2026-04-29 01:58 0.06257 -80.12153 22934 ft 478 kts 29°
2026-04-29 01:58 0.09177 -80.10571 22937 ft 478 kts 29°
2026-04-29 01:58 0.12100 -80.08987 22934 ft 477 kts 29°
2026-04-29 01:59 0.15019 -80.07405 22942 ft 477 kts 29°
2026-04-29 01:59 0.17941 -80.05821 22937 ft 477 kts 30°
2026-04-29 01:59 0.20825 -80.04258 22940 ft 477 kts 29°
2026-04-29 01:59 0.23746 -80.02675 22938 ft 477 kts 30°
2026-04-29 02:00 0.26672 -80.01089 22928 ft 477 kts 30°
2026-04-29 02:00 0.29592 -79.99506 22938 ft 477 kts 30°
2026-04-29 02:00 0.32512 -79.97924 22933 ft 477 kts 30°
2026-04-29 02:00 0.35425 -79.96345 22930 ft 476 kts 30°
2026-04-29 02:01 0.38337 -79.94767 22947 ft 476 kts 30°
2026-04-29 02:01 0.41248 -79.93189 22946 ft 476 kts 30°
2026-04-29 02:01 0.44162 -79.91610 22942 ft 476 kts 29°
2026-04-29 02:01 0.47077 -79.90030 22941 ft 476 kts 30°
2026-04-29 02:02 0.49961 -79.88467 22939 ft 476 kts 30°
2026-04-29 02:02 0.52869 -79.86891 22939 ft 476 kts 30°
2026-04-29 02:02 0.55780 -79.85313 22939 ft 476 kts 29°
2026-04-29 02:02 0.58691 -79.83735 22940 ft 476 kts 30°
2026-04-29 02:03 0.61609 -79.82154 22934 ft 476 kts 29°
2026-04-29 02:03 0.64521 -79.80575 22935 ft 476 kts 30°
2026-04-29 02:03 0.67433 -79.78997 22935 ft 476 kts 30°
2026-04-29 02:03 0.70344 -79.77417 22937 ft 476 kts 30°
2026-04-29 02:04 0.73257 -79.75837 22936 ft 476 kts 30°
2026-04-29 02:04 0.76170 -79.74257 22941 ft 476 kts 30°
2026-04-29 02:04 0.79044 -79.72697 22937 ft 475 kts 30°
2026-04-29 02:04 0.81946 -79.71123 22925 ft 475 kts 30°
2026-04-29 02:05 0.84854 -79.69545 22936 ft 475 kts 30°
2026-04-29 02:05 0.87766 -79.67965 22938 ft 475 kts 30°
2026-04-29 02:05 0.90681 -79.66384 22938 ft 475 kts 30°
2026-04-29 02:05 0.93592 -79.64804 22933 ft 475 kts 30°
2026-04-29 02:06 0.96442 -79.63141 22923 ft 474 kts 37°
2026-04-29 02:06 0.98876 -79.60936 22935 ft 472 kts 46°
2026-04-29 02:06 1.01186 -79.58606 22932 ft 473 kts 46°
2026-04-29 02:06 1.03489 -79.56247 22932 ft 473 kts 47°
2026-04-29 02:07 1.05769 -79.53885 22932 ft 472 kts 47°
2026-04-29 02:07 1.08044 -79.51513 22929 ft 472 kts 47°
2026-04-29 02:07 1.10322 -79.49141 22933 ft 472 kts 47°
2026-04-29 02:07 1.12563 -79.46799 22929 ft 473 kts 47°
2026-04-29 02:08 1.14833 -79.44425 22928 ft 472 kts 47°
2026-04-29 02:08 1.17103 -79.42052 22927 ft 472 kts 47°
2026-04-29 02:08 1.19375 -79.39679 22929 ft 472 kts 47°
2026-04-29 02:08 1.21649 -79.37304 22928 ft 472 kts 47°
2026-04-29 02:09 1.23911 -79.34941 22927 ft 472 kts 47°
2026-04-29 02:09 1.26192 -79.32557 22926 ft 472 kts 47°
2026-04-29 02:09 1.28466 -79.30181 22925 ft 472 kts 47°
2026-04-29 02:09 1.30734 -79.27811 22926 ft 472 kts 47°
2026-04-29 02:10 1.33004 -79.25440 22927 ft 472 kts 47°
2026-04-29 02:10 1.35275 -79.23069 22925 ft 472 kts 47°
2026-04-29 02:10 1.37542 -79.20699 22926 ft 472 kts 47°
2026-04-29 02:10 1.39779 -79.18361 22925 ft 472 kts 47°
2026-04-29 02:11 1.42046 -79.15993 22926 ft 472 kts 47°
2026-04-29 02:11 1.44316 -79.13622 22924 ft 472 kts 47°
2026-04-29 02:11 1.46582 -79.11256 22926 ft 471 kts 47°
2026-04-29 02:11 1.48849 -79.08888 22925 ft 471 kts 47°
2026-04-29 02:12 1.51114 -79.06522 22925 ft 471 kts 47°
2026-04-29 02:12 1.53383 -79.04152 22925 ft 471 kts 47°
2026-04-29 02:12 1.55651 -79.01785 22926 ft 471 kts 47°
2026-04-29 02:12 1.57924 -78.99410 22923 ft 471 kts 47°
2026-04-29 02:13 1.60192 -78.97039 22923 ft 471 kts 47°
2026-04-29 02:13 1.62461 -78.94669 22920 ft 471 kts 47°
2026-04-29 02:13 1.64730 -78.92299 22919 ft 471 kts 47°
2026-04-29 02:13 1.66997 -78.89930 22918 ft 471 kts 47°
2026-04-29 02:14 1.69265 -78.87561 22915 ft 471 kts 47°
2026-04-29 02:14 1.71531 -78.85193 22912 ft 471 kts 47°
2026-04-29 02:14 1.73798 -78.82825 22909 ft 471 kts 47°
2026-04-29 02:14 1.76065 -78.80455 22910 ft 471 kts 47°
2026-04-29 02:15 1.78303 -78.78118 22912 ft 471 kts 47°
2026-04-29 02:15 1.80597 -78.75717 22911 ft 471 kts 48°
2026-04-29 02:15 1.82563 -78.73168 22914 ft 469 kts 57°
2026-04-29 02:15 1.84404 -78.70474 22914 ft 469 kts 57°
2026-04-29 02:16 1.86243 -78.67778 22912 ft 469 kts 57°
2026-04-29 02:16 1.88077 -78.65080 22910 ft 469 kts 57°
2026-04-29 02:16 1.89911 -78.62380 22916 ft 469 kts 57°
2026-04-29 02:16 1.91748 -78.59674 22914 ft 469 kts 57°
2026-04-29 02:17 1.93580 -78.56976 22916 ft 469 kts 57°
2026-04-29 02:17 1.95412 -78.54278 22919 ft 469 kts 57°
2026-04-29 02:17 1.97244 -78.51580 22921 ft 469 kts 57°
2026-04-29 02:17 1.99075 -78.48883 22922 ft 469 kts 57°
2026-04-29 02:18 2.00906 -78.46184 22922 ft 469 kts 57°
2026-04-29 02:18 2.02744 -78.43478 22923 ft 469 kts 57°
2026-04-29 02:18 2.04555 -78.40811 22923 ft 469 kts 57°
2026-04-29 02:18 2.06386 -78.38113 22925 ft 469 kts 57°
2026-04-29 02:19 2.08220 -78.35410 22923 ft 469 kts 57°
2026-04-29 02:19 2.10051 -78.32713 22919 ft 469 kts 57°
2026-04-29 02:19 2.11883 -78.30013 22922 ft 469 kts 57°
2026-04-29 02:19 2.13715 -78.27313 22922 ft 469 kts 57°
2026-04-29 02:20 2.15549 -78.24611 22918 ft 469 kts 57°
2026-04-29 02:20 2.17383 -78.21908 22923 ft 469 kts 57°
2026-04-29 02:20 2.19192 -78.19243 22922 ft 469 kts 57°
2026-04-29 02:20 2.21018 -78.16552 22921 ft 469 kts 57°
2026-04-29 02:21 2.22849 -78.13853 22925 ft 468 kts 57°
2026-04-29 02:21 2.24679 -78.11155 22925 ft 468 kts 57°
2026-04-29 02:21 2.26506 -78.08463 22926 ft 468 kts 57°
2026-04-29 02:21 2.28337 -78.05763 22920 ft 468 kts 57°
2026-04-29 02:22 2.30167 -78.03066 22930 ft 468 kts 57°
2026-04-29 02:22 2.31995 -78.00371 22931 ft 468 kts 57°
2026-04-29 02:22 2.33822 -77.97678 22929 ft 468 kts 57°
2026-04-29 02:22 2.35651 -77.94980 22932 ft 468 kts 57°
2026-04-29 02:23 2.37479 -77.92285 22933 ft 468 kts 57°
2026-04-29 02:23 2.39307 -77.89589 22933 ft 468 kts 57°
2026-04-29 02:23 2.41135 -77.86894 22935 ft 468 kts 57°
2026-04-29 02:23 2.42941 -77.84230 22938 ft 468 kts 57°
2026-04-29 02:24 2.44790 -77.81503 22933 ft 468 kts 57°
2026-04-29 02:24 2.46620 -77.78803 22937 ft 468 kts 57°
2026-04-29 02:24 2.48425 -77.76141 22938 ft 468 kts 57°
2026-04-29 02:25 2.52077 -77.70752 22942 ft 468 kts 57°
2026-04-29 02:25 2.53930 -77.68017 22945 ft 468 kts 57°
2026-04-29 02:25 2.55731 -77.65358 22947 ft 468 kts 57°
2026-04-29 02:25 2.57559 -77.62660 22951 ft 468 kts 57°
2026-04-29 02:26 2.59388 -77.59960 22945 ft 468 kts 57°
2026-04-29 02:26 2.61216 -77.57263 22952 ft 468 kts 57°
2026-04-29 02:26 2.63045 -77.54563 22953 ft 468 kts 57°
2026-04-29 02:26 2.64873 -77.51863 22952 ft 468 kts 57°
2026-04-29 02:27 2.66702 -77.49164 22953 ft 468 kts 57°
2026-04-29 02:27 2.68528 -77.46467 22955 ft 468 kts 57°
2026-04-29 02:27 2.70356 -77.43771 22953 ft 468 kts 57°
2026-04-29 02:27 2.72183 -77.41073 22954 ft 468 kts 57°
2026-04-29 02:28 2.74010 -77.38374 22956 ft 468 kts 57°
2026-04-29 02:28 2.75815 -77.35707 22955 ft 468 kts 57°
2026-04-29 02:28 2.77644 -77.33006 22956 ft 468 kts 57°
2026-04-29 02:28 2.79471 -77.30308 22955 ft 468 kts 57°
2026-04-29 02:29 2.81250 -77.27573 22955 ft 467 kts 62°
2026-04-29 02:29 2.82666 -77.24646 22965 ft 467 kts 65°
2026-04-29 02:29 2.84057 -77.21707 22967 ft 467 kts 65°
2026-04-29 02:29 2.85443 -77.18757 22976 ft 467 kts 65°
2026-04-29 02:30 2.86824 -77.15815 22974 ft 467 kts 66°
2026-04-29 02:30 2.88205 -77.12871 22979 ft 467 kts 65°
2026-04-29 02:30 2.89569 -77.09963 22984 ft 467 kts 66°
2026-04-29 02:30 2.90943 -77.07034 22343 ft 463 kts 65°
2026-04-29 02:31 2.92320 -77.04096 21380 ft 465 kts 65°
2026-04-29 02:31 2.93669 -77.01220 20511 ft 450 kts 65°
2026-04-29 02:31 2.94974 -76.98437 19850 ft 434 kts 65°
2026-04-29 02:31 2.96233 -76.95751 19219 ft 418 kts 65°
2026-04-29 02:32 2.97453 -76.93149 18580 ft 412 kts 65°
2026-04-29 02:32 2.98684 -76.90521 17850 ft 421 kts 65°
2026-04-29 02:32 2.99936 -76.87849 17155 ft 424 kts 65°
2026-04-29 02:32 3.01186 -76.85183 16497 ft 422 kts 65°
2026-04-29 02:33 3.02426 -76.82537 15850 ft 418 kts 65°
2026-04-29 02:33 3.03654 -76.79917 15482 ft 409 kts 65°
2026-04-29 02:33 3.04825 -76.77416 15208 ft 386 kts 65°
2026-04-29 02:33 3.05932 -76.75055 14996 ft 364 kts 65°
2026-04-29 02:34 3.06978 -76.72821 14809 ft 345 kts 65°
2026-04-29 02:34 3.07968 -76.70708 14630 ft 326 kts 65°
2026-04-29 02:34 3.08905 -76.68707 14470 ft 309 kts 65°
2026-04-29 02:34 3.09796 -76.66806 14315 ft 293 kts 65°
2026-04-29 02:35 3.10627 -76.65031 14171 ft 278 kts 65°
2026-04-29 02:35 3.11426 -76.63327 14029 ft 263 kts 65°
2026-04-29 02:35 3.12181 -76.61716 13892 ft 250 kts 65°
2026-04-29 02:35 3.12916 -76.60148 13797 ft 246 kts 65°
2026-04-29 02:36 3.13617 -76.58654 13718 ft 229 kts 65°
2026-04-29 02:36 3.14272 -76.57256 13559 ft 214 kts 65°
2026-04-29 02:36 3.14894 -76.55928 13443 ft 211 kts 65°
2026-04-29 02:36 3.15529 -76.54575 13372 ft 218 kts 65°
2026-04-29 02:37 3.16179 -76.53189 13293 ft 217 kts 65°
2026-04-29 02:37 3.16811 -76.51840 13187 ft 212 kts 65°
2026-04-29 02:37 3.17434 -76.50512 13075 ft 210 kts 65°
2026-04-29 02:37 3.18052 -76.49193 12967 ft 209 kts 65°
2026-04-29 02:38 3.18667 -76.47879 12858 ft 209 kts 65°
2026-04-29 02:38 3.19284 -76.46562 12747 ft 208 kts 65°
2026-04-29 02:38 3.19908 -76.45271 12624 ft 209 kts 60°
2026-04-29 02:38 3.20933 -76.44280 12428 ft 207 kts 27°
2026-04-29 02:39 3.22309 -76.43854 12295 ft 209 kts 13°
2026-04-29 02:39 3.23736 -76.43559 12137 ft 209 kts 12°
2026-04-29 02:39 3.25164 -76.43278 11925 ft 209 kts 12°
2026-04-29 02:39 3.26591 -76.43012 11713 ft 208 kts 11°
2026-04-29 02:40 3.28016 -76.42752 11482 ft 208 kts 11°
2026-04-29 02:40 3.29438 -76.42497 11150 ft 208 kts 11°
2026-04-29 02:40 3.30824 -76.42105 10744 ft 208 kts 31°
2026-04-29 02:40 3.31925 -76.41208 10428 ft 200 kts 41°
2026-04-29 02:41 3.32696 -76.40735 10209 ft 196 kts 19°
2026-04-29 02:41 3.34042 -76.40648 9905 ft 198 kts 349°
2026-04-29 02:41 3.35408 -76.40915 9629 ft 201 kts 352°
2026-04-29 02:41 3.36796 -76.41025 9298 ft 200 kts
2026-04-29 02:42 3.38185 -76.40934 8851 ft 201 kts
2026-04-29 02:42 3.39585 -76.40734 8264 ft 205 kts
2026-04-29 02:42 3.41001 -76.40490 7717 ft 207 kts 10°
2026-04-29 02:42 3.42413 -76.40259 7211 ft 204 kts
2026-04-29 02:43 3.43763 -76.40127 6745 ft 195 kts
2026-04-29 02:43 3.45130 -76.39919 5942 ft 203 kts 11°
2026-04-29 02:43 3.46527 -76.39606 5188 ft 206 kts 10°
2026-04-29 02:43 3.47915 -76.39362 4642 ft 198 kts
2026-04-29 02:44 3.49236 -76.39101 4147 ft 191 kts
2026-04-29 02:44 3.50530 -76.38864 3648 ft 183 kts
2026-04-29 02:44 3.51684 -76.38636 3458 ft 158 kts
2026-04-29 02:44 3.52728 -76.38443 3231 ft 149 kts
2026-04-29 02:45 3.53673 -76.38282 3167 ft 100 kts 11°
2026-04-29 02:45 3.53948 -76.38235 3169 ft 17 kts 10°
2026-04-29 02:45 3.54032 -76.38222 3172 ft 5 kts
2026-04-29 02:45 3.54070 -76.38232 3172 ft 6 kts 322°
2026-04-29 02:46 3.54090 -76.38279 3169 ft 9 kts 281°
2026-04-29 02:46 3.54092 -76.38290 3169 ft 0 kts 281°
2026-04-29 02:47 3.54094 -76.38303 3169 ft 4 kts 281°
2026-04-29 02:47 3.54101 -76.38339 3170 ft 6 kts 276°
2026-04-29 02:48 3.54084 -76.38384 3168 ft 8 kts 225°
2026-04-29 02:48 3.54034 -76.38425 3168 ft 10 kts 220°
2026-04-29 02:48 3.53973 -76.38476 3167 ft 12 kts 219°
2026-04-29 02:48 3.53903 -76.38534 3167 ft 14 kts 220°
2026-04-29 02:49 3.53841 -76.38594 3167 ft 12 kts 246°
2026-04-29 02:49 3.53830 -76.38615 3167 ft 1 kts 217°
2026-04-29 02:49 3.53819 -76.38619 3167 ft 2 kts 193°
2026-04-29 02:49 3.53800 -76.38618 3167 ft 2 kts 183°
2026-04-29 02:50 3.53794 -76.38622 3169 ft 1 kts 214°
2026-04-29 02:50 3.53763 -76.38645 3166 ft 3 kts 207°
2026-04-29 02:50 3.53762 -76.38646 3166 ft 0 kts 206°